星链-5172 (STARLINK-5172 )

导读

STARLINK-5172是美国SpaceX星链互联网卫星项目的一员,于2022年10月20日发射入轨,属于星链低轨星座组网卫星。星链计划旨在搭建全球覆盖的卫星互联网网络,STARLINK-5172作为组网卫星,为提升星链全球网络覆盖密度、通信服务能力提供支撑,服务全球偏远区域互联网接入需求。

基本信息
目录编号:
54064
目录名称:
STARLINK-5172
国际标识:
2022-136P
轨道中心:
EARTH
卫星名称:
星链-5172
卫星全名:
星链-5172 (STARLINK-5172 )
卫星状态:
在轨 (已飞行1423 天)
发射日期:
2022-10-20 UTC
国别 :
美国 (US)
星等 :
--
该卫星已列入 空间交会检测服务 Space Conjunction Data Service (SCDS) ,当前飞行风险评估等级: 无高风险
轨道信息
数据来源 国际轨道数据 AOE轨道数据
星历时间 2026-09-12T11:09:29+0800
8小时前
查看轨道信息
2026-09-10T02:00:00+0800
2天前
查看轨道信息
半长轴 6848.862km 6848.873km
偏心率 0.0001123 0.0001334
轨道倾角 53.161° 53.158°
近地点辐角 81.501° 92.380°
升交点赤经 169.471° 180.563°
平近点角 278.612° 87.977°
近地点 469.955km 469.822km
远地点 471.495km 471.65km
周期 94.013分钟 94.013分钟
每日圈数 15.317052 15.317014
详细信息
固有亮度:
5
最大亮度:
2.5
卫星平台:
Starlink v1.5
覆盖范围:
全球
运营商:
太空探索技术公司
运营商所在国:
美国
制造商(研发单位):
太空探索技术公司
制造商所在国:
美国
使用方式:
暂无
卫星简介
星链(Starlink)计划是由太空探索技术公司(SpaceX)提出的一个巨型低轨卫星互联网星座项目,计划在2019年至2024年间在太空搭建由约1.2万颗卫星组成的“星链”网络,其中1584颗将部署在地球上空550千米处的近地轨道,并从2020年开始工作。该卫星仍在工作。
2D轨道图
3D轨道图
轨道高度分析图
轨道倾角分析图
轨道综合分析图
查看轨道综合分析图
与全量物体交会距离演化趋势
与全量物体交会风险概率演化趋势